Location: Buckenweiler
(49.0667°N, 10.2500°E)
Time: 22:50:41
(UTC+00:00)

SJ 16-02 - Pass Details

Date: 18 January 2026
Orbit: 582 x 594 km, 75.0° (Epoch: 16 February)

Event Time Altitude Azimuth Distance (km) Brightness Sun altitude
Rises 05:06:17 0° 167° (SSE) 2,792 5.0 -19.1°
Reaches altitude 10° 05:08:47 10° 154° (SSE) 1,898 4.3 -18.7°
Maximum altitude 05:12:12 24° 100° (E) 1,219 3.7 -18.1°
Drops below altitude 10° 05:15:38 10° 46° (NE) 1,913 4.3 -17.6°
Sets 05:18:09 0° 32° (NNE) 2,819 5.0 -17.2°
